When you browse on this site, cookies collect data to enhance your experience and personalize the content and advertising you see.
Visit our Privacy Policy to learn more. By continuing to use the site, you agree to this use of cookies and data.
  • Em Portugal
  • Lista de países
  • Para 7 dias
  • Temperatura da água
  • Mapa do tempo
  • Widgets de tempo
  • user-avatar
    Iniciar Sessão

    Previsão horária em Bangor

    Hoje, 22 Setembro, Domingo

    Tempo Temperatura Precipitação Vento Pressão Humidade
    00:00 +16°C° 0 mm 2 m/s 736 mmHg 92%
    01:00 +16°C° 0.1 mm 2 m/s 735 mmHg 93%
    02:00 +16°C° 0.1 mm 3 m/s 734 mmHg 95%
    03:00 +16°C° 0.1 mm 3 m/s 734 mmHg 96%
    04:00 +16°C° 0 mm 3 m/s 734 mmHg 96%
    05:00 +16°C° 0 mm 3 m/s 734 mmHg 96%
    06:00 +16°C° 0 mm 3 m/s 734 mmHg 96%
    07:00 +16°C° 1 mm 3 m/s 734 mmHg 96%
    08:00 +16°C° 1 mm 3 m/s 734 mmHg 96%
    09:00 +16°C° 1 mm 3 m/s 734 mmHg 96%
    10:00 +17°C° 0.3 mm 4 m/s 734 mmHg 92%
    11:00 +17°C° 0.3 mm 4 m/s 734 mmHg 89%
    12:00 +17°C° 0.3 mm 4 m/s 734 mmHg 85%
    13:00 +17°C° 0.3 mm 5 m/s 734 mmHg 83%
    14:00 +17°C° 0.3 mm 5 m/s 734 mmHg 82%
    15:00 +17°C° 0.3 mm 5 m/s 734 mmHg 80%
    16:00 +16°C° 0.2 mm 5 m/s 734 mmHg 83%
    17:00 +15°C° 0.2 mm 4 m/s 734 mmHg 87%
    18:00 +14°C° 0.2 mm 3 m/s 734 mmHg 90%
    19:00 +13°C° 0 mm 3 m/s 735 mmHg 92%
    20:00 +13°C° 0 mm 2 m/s 735 mmHg 93%
    21:00 +13°C° 0 mm 2 m/s 735 mmHg 95%
    22:00 +13°C° 0.1 mm 2 m/s 736 mmHg 94%
    23:00 +12°C° 0.1 mm 3 m/s 736 mmHg 94%

    Amanhã, 23 Setembro, Segunda-feira

    Tempo Temperatura Precipitação Vento Pressão Humidade
    00:00 +12°C° 0.1 mm 3 m/s 737 mmHg 93%
    01:00 +12°C° 0.1 mm 4 m/s 737 mmHg 94%
    02:00 +12°C° 0.1 mm 4 m/s 737 mmHg 94%
    03:00 +12°C° 0.1 mm 4 m/s 738 mmHg 94%
    04:00 +11°C° 0 mm 4 m/s 738 mmHg 94%
    05:00 +11°C° 0 mm 3 m/s 738 mmHg 94%
    06:00 +10°C° 0 mm 3 m/s 739 mmHg 93%
    07:00 +11°C° 0 mm 4 m/s 739 mmHg 90%
    08:00 +13°C° 0 mm 4 m/s 739 mmHg 87%
    09:00 +14°C° 0 mm 5 m/s 740 mmHg 84%
    10:00 +14°C° 0.1 mm 5 m/s 740 mmHg 82%
    11:00 +15°C° 0.1 mm 6 m/s 739 mmHg 80%
    12:00 +16°C° 0.1 mm 7 m/s 739 mmHg 78%
    13:00 +15°C° 0.6 mm 7 m/s 739 mmHg 82%
    14:00 +14°C° 0.6 mm 7 m/s 738 mmHg 87%
    15:00 +12°C° 0.6 mm 7 m/s 738 mmHg 92%
    16:00 +14°C° 1.1 mm 7 m/s 737 mmHg 93%
    17:00 +14°C° 1.1 mm 7 m/s 737 mmHg 94%
    18:00 +14°C° 1.1 mm 7 m/s 736 mmHg 96%
    19:00 +15°C° 0.3 mm 6 m/s 736 mmHg 96%
    20:00 +15°C° 0.3 mm 5 m/s 736 mmHg 96%
    21:00 +15°C° 0.3 mm 4 m/s 736 mmHg 96%
    22:00 +15°C° 0.7 mm 4 m/s 736 mmHg 96%
    23:00 +15°C° 0.7 mm 4 m/s 736 mmHg 96%

    Depois de amanhã, 24 Setembro, Terça-feira

    Tempo Temperatura Precipitação Vento Pressão Humidade
    00:00 +15°C° 0.7 mm 4 m/s 735 mmHg 96%
    01:00 +15°C° 0.8 mm 4 m/s 735 mmHg 96%
    02:00 +15°C° 0.8 mm 4 m/s 734 mmHg 96%
    03:00 +15°C° 0.8 mm 4 m/s 734 mmHg 96%
    04:00 +15°C° 1.4 mm 4 m/s 733 mmHg 96%
    05:00 +15°C° 1.4 mm 4 m/s 732 mmHg 96%
    06:00 +14°C° 1.4 mm 4 m/s 732 mmHg 95%
    07:00 +14°C° 1.1 mm 5 m/s 732 mmHg 94%
    08:00 +14°C° 1.1 mm 5 m/s 732 mmHg 92%
    09:00 +14°C° 1.1 mm 6 m/s 732 mmHg 91%
    10:00 +15°C° 0.2 mm 7 m/s 732 mmHg 86%
    11:00 +16°C° 0.2 mm 7 m/s 732 mmHg 81%
    12:00 +16°C° 0.2 mm 8 m/s 732 mmHg 76%
    13:00 +16°C° 0.1 mm 8 m/s 733 mmHg 77%
    14:00 +16°C° 0.1 mm 8 m/s 733 mmHg 77%
    15:00 +16°C° 0.1 mm 8 m/s 733 mmHg 77%
    16:00 +15°C° 0.2 mm 7 m/s 732 mmHg 81%
    17:00 +14°C° 0.2 mm 7 m/s 732 mmHg 86%
    18:00 +13°C° 0.2 mm 6 m/s 732 mmHg 90%
    19:00 +13°C° 0.6 mm 6 m/s 732 mmHg 92%
    20:00 +12°C° 0.6 mm 7 m/s 731 mmHg 93%
    21:00 +12°C° 0.6 mm 7 m/s 731 mmHg 95%
    22:00 +12°C° 2.2 mm 7 m/s 731 mmHg 94%
    23:00 +12°C° 2.2 mm 7 m/s 730 mmHg 94%

    25 Setembro, Quarta-feira

    Tempo Temperatura Precipitação Vento Pressão Humidade
    00:00 +13°C° 2.2 mm 8 m/s 730 mmHg 93%
    01:00 +14°C° 0.9 mm 7 m/s 730 mmHg 94%
    02:00 +14°C° 0.9 mm 7 m/s 730 mmHg 94%
    03:00 +14°C° 0.9 mm 6 m/s 730 mmHg 94%
    04:00 +14°C° 0.1 mm 6 m/s 730 mmHg 93%
    05:00 +14°C° 0.1 mm 6 m/s 731 mmHg 92%
    06:00 +13°C° 0.1 mm 6 m/s 731 mmHg 92%
    07:00 +14°C° 0 mm 6 m/s 732 mmHg 90%
    08:00 +14°C° 0 mm 6 m/s 732 mmHg 88%
    09:00 +15°C° 0 mm 6 m/s 733 mmHg 87%
    10:00 +15°C° 0.1 mm 6 m/s 734 mmHg 85%
    11:00 +16°C° 0.1 mm 6 m/s 734 mmHg 83%
    12:00 +16°C° 0.1 mm 6 m/s 735 mmHg 81%
    13:00 +16°C° 0.1 mm 6 m/s 735 mmHg 80%
    14:00 +16°C° 0.1 mm 6 m/s 735 mmHg 79%
    15:00 +16°C° 0.1 mm 6 m/s 735 mmHg 78%
    16:00 +16°C° 0 mm 5 m/s 735 mmHg 82%
    17:00 +15°C° 0 mm 5 m/s 735 mmHg 87%
    18:00 +14°C° 0 mm 4 m/s 735 mmHg 91%
    19:00 +14°C° 0.2 mm 4 m/s 735 mmHg 93%
    20:00 +14°C° 0.2 mm 4 m/s 735 mmHg 95%
    21:00 +15°C° 0.2 mm 4 m/s 735 mmHg 97%
    22:00 +15°C° 0.3 mm 5 m/s 735 mmHg 96%
    23:00 +15°C° 0.3 mm 6 m/s 734 mmHg 95%

    26 Setembro, Quinta-feira

    Tempo Temperatura Precipitação Vento Pressão Humidade
    00:00 +15°C° 0.3 mm 7 m/s 734 mmHg 94%
    01:00 +15°C° 0.5 mm 7 m/s 734 mmHg 94%
    02:00 +15°C° 0.5 mm 7 m/s 734 mmHg 95%
    03:00 +14°C° 0.5 mm 7 m/s 734 mmHg 95%
    04:00 +14°C° 1.2 mm 7 m/s 734 mmHg 94%
    05:00 +15°C° 1.2 mm 7 m/s 734 mmHg 94%
    06:00 +15°C° 1.2 mm 7 m/s 734 mmHg 94%
    07:00 +14°C° 0.6 mm 7 m/s 734 mmHg 91%
    08:00 +14°C° 0.6 mm 7 m/s 735 mmHg 87%
    09:00 +13°C° 0.6 mm 8 m/s 735 mmHg 84%
    10:00 +15°C° 0.1 mm 8 m/s 735 mmHg 81%
    11:00 +15°C° 0.1 mm 8 m/s 735 mmHg 77%
    12:00 +16°C° 0.1 mm 8 m/s 736 mmHg 73%
    13:00 +15°C° 0.2 mm 8 m/s 736 mmHg 75%
    14:00 +15°C° 0.2 mm 8 m/s 736 mmHg 78%
    15:00 +13°C° 0.2 mm 8 m/s 736 mmHg 80%
    16:00 +14°C° 0.1 mm 7 m/s 736 mmHg 81%
    17:00 +12°C° 0.1 mm 7 m/s 736 mmHg 83%
    18:00 +11°C° 0.1 mm 6 m/s 736 mmHg 84%
    19:00 +11°C° 0.1 mm 6 m/s 736 mmHg 86%
    20:00 +12°C° 0.1 mm 5 m/s 737 mmHg 87%
    21:00 +11°C° 0.1 mm 4 m/s 737 mmHg 88%
    22:00 +11°C° 0.1 mm 4 m/s 737 mmHg 89%
    23:00 +11°C° 0.1 mm 4 m/s 737 mmHg 90%

    27 Setembro, Sexta-feira

    Tempo Temperatura Precipitação Vento Pressão Humidade
    00:00 +10°C° 0.1 mm 4 m/s 737 mmHg 90%
    01:00 +9°C° 0.1 mm 5 m/s 737 mmHg 90%
    02:00 +9°C° 0.1 mm 5 m/s 737 mmHg 90%
    03:00 +9°C° 0.1 mm 5 m/s 737 mmHg 90%
    04:00 +9°C° 0.1 mm 5 m/s 737 mmHg 91%
    05:00 +9°C° 0.1 mm 5 m/s 737 mmHg 91%
    06:00 +9°C° 0.1 mm 5 m/s 737 mmHg 91%
    07:00 +10°C° 0.3 mm 6 m/s 737 mmHg 89%
    08:00 +11°C° 0.3 mm 6 m/s 737 mmHg 86%
    09:00 +12°C° 0.3 mm 7 m/s 737 mmHg 83%
    10:00 +12°C° 0.4 mm 7 m/s 737 mmHg 81%
    11:00 +13°C° 0.4 mm 8 m/s 737 mmHg 78%
    12:00 +13°C° 0.4 mm 9 m/s 737 mmHg 76%
    13:00 +13°C° 0.2 mm 9 m/s 737 mmHg 75%
    14:00 +13°C° 0.2 mm 9 m/s 737 mmHg 75%
    15:00 +13°C° 0.2 mm 9 m/s 736 mmHg 74%
    16:00 +12°C° 0.1 mm 8 m/s 736 mmHg 76%
    17:00 +11°C° 0.1 mm 7 m/s 736 mmHg 78%
    18:00 +10°C° 0.1 mm 6 m/s 736 mmHg 80%
    19:00 +10°C° 0.2 mm 6 m/s 737 mmHg 81%
    20:00 +10°C° 0.2 mm 7 m/s 737 mmHg 83%
    21:00 +10°C° 0.2 mm 7 m/s 737 mmHg 85%
    22:00 +10°C° 0.1 mm 7 m/s 736 mmHg 85%
    23:00 +10°C° 0.1 mm 7 m/s 736 mmHg 85%
    Mostrar mais